Weather History for VTUK - October, 2012

Change the Weather History Date:

Tuesday, October 9, 2012

  Actual Average Record
Temperature  
Mean Temperature 80 °F -  
Max Temperature 88 °F 88 °F - ()
Min Temperature 72 °F 70 °F - ()
Cooling Degree Days 15    
Growing Degree Days 30 (Base 50)    
Moisture  
Dew Point 75 °F    
Average Humidity 81    
Maximum Humidity 100    
Minimum Humidity 53    
Precipitation  
Precipitation 0.00 in 0.10 in - ()
Sea Level Pressure  
Sea Level Pressure 29.85 in    
Wind  
Wind Speed 3 mph ()    
Max Wind Speed 9 mph    
Max Gust Speed -    
Visibility 5.9 miles    
Events      
T = Trace of Precipitation, MM = Missing Value Source: Averaged Metar Reports

Daily Weather History Graph

Daily Weather History Graph

Search for Another Location

Airport or City:

Trip Planner

Search our weather history database for the weather conditions in past years. The results will help you decide how hot, cold, wet, or windy it might be!

Date:

Astronomy

Oct. 09, 2012 Rise Set
Actual Time 6:00 AM ICT 5:51 PM ICT
Civil Twilight 5:38 AM ICT 6:13 PM ICT
Nautical Twilight 5:13 AM ICT 6:38 PM ICT
Astronomical Twilight 4:48 AM ICT 7:03 PM ICT
Moon 12:01 AM ICT (10/9) 1:07 PM ICT (10/9)
Length of Visible Light 12h 34m
Length of Day
11h 51m
Last Quarter, 41% of the Moon is Illuminated
Oct 9
Last Quarter
Oct 15
New
Oct 22
First Quarter
Oct 30
Full
Nov 7
Last Quarter

Hourly Weather History & Observations

Time (ICT) Temp. Heat Index Dew Point Humidity Pressure Visibility Wind Dir Wind Speed Gust Speed Precip Events Conditions
1:00 AM 78 °F - 74 °F 83% 29.84 in 6 mi East 2.3 mph - -   Overcast
4:00 AM 73.4 °F - 73.4 °F 100% 29.83 in 6.2 mi NNE 9.2 mph - N/A   Mostly Cloudy
6:00 AM 73.4 °F - 73.4 °F 100% 29.86 in 6.2 mi Calm Calm - N/A   Mostly Cloudy
7:00 AM 74 °F - 73 °F 96% 29.89 in 5 mi Calm Calm - -   Mist
7:00 AM 75.2 °F - 75.2 °F 100% 29.89 in 5.0 mi Calm Calm - N/A   Mostly Cloudy
8:00 AM 77.0 °F - 75.2 °F 94% 29.92 in 5.0 mi Calm Calm - N/A   Mostly Cloudy
9:00 AM 78.8 °F - 77.0 °F 94% 29.95 in 5.6 mi ENE 5.8 mph - N/A   Mostly Cloudy
11:00 AM 84.2 °F 94.1 °F 77.0 °F 79% 29.92 in 6.2 mi ESE 6.9 mph - N/A   Mostly Cloudy
12:00 PM 84.2 °F 92.3 °F 75.2 °F 74% 29.89 in 6.2 mi ESE 5.8 mph - N/A   Scattered Clouds
1:00 PM 86 °F - 71 °F 53% 29.82 in 6 mi East 5.8 mph - -   Sandstorm
1:00 PM 86.0 °F 95.1 °F 75.2 °F 70% 29.86 in 6.2 mi East 6.9 mph - N/A   Mostly Cloudy
2:00 PM 86.0 °F 95.1 °F 75.2 °F 70% 29.83 in 6.2 mi ESE 5.8 mph - N/A   Mostly Cloudy
3:00 PM 86.0 °F 95.1 °F 75.2 °F 70% 29.80 in 6.2 mi ESE 4.6 mph - N/A   Mostly Cloudy
4:00 PM 86.0 °F 95.1 °F 75.2 °F 70% 29.77 in 6.2 mi ESE 5.8 mph - N/A   Mostly Cloudy
5:00 PM 86.0 °F 95.1 °F 75.2 °F 70% 29.80 in 6.2 mi East 4.6 mph - N/A   Mostly Cloudy
6:00 PM 82.4 °F 89.5 °F 75.2 °F 79% 29.80 in 6.2 mi East 2.3 mph - N/A   Mostly Cloudy
7:00 PM 83 °F - 74 °F 69% 29.82 in 6 mi Calm Calm - -   Scattered Clouds
7:00 PM 80.6 °F 86.2 °F 75.2 °F 84% 29.83 in 6.2 mi Calm Calm - N/A   Mostly Cloudy
8:00 PM 80.6 °F 87.1 °F 77.0 °F 89% 29.86 in 6.2 mi North 2.3 mph - N/A   Mostly Cloudy